Starlink 31253

operational
NORAD ID: 58830 Int'l Des: 2024-017 Owner: SPXS Country: US Constellation: starlink
LEOCIRCULAR

Starlink 31253について

説明を読み込み中...

リアルタイム位置

3D地球を読み込み中...

次回通過

高度履歴

Altitude vs Time

uPlot chart will show altitude changes over time

軌道要素

1 58830U 24017E 25258.48103566 .00000617 00000-0 32970-4 0 9992
2 58830 53.1605 297.9583 0001298 91.0636 269.0514 15.30195365 93236
Epoch: Sep 15, 2025 • Age: 17 hours

現在のステータス

高度 488.3 km
速度 7.62 km/s
衛星直下点 -38.27°S, 92.01°E
打ち上げ日 Jan 24, 2024
運用期間 1.6 years
タイプ internet

技術仕様

分類 Payload
質量 730.00 kg
乾燥質量 700.00 kg
総質量 730.00 kg
長さ 0.30 m
直径 4.10 m
スパン 29.00 m
形状 Box + pan
製造者 SPXS
バスタイプ Starlink V2M
フェーズステータス In Orbit
所有者/国 SPXS/US

大規模コンステレーション

Loading constellations...